Погода Уля

Погода Уля : погода сейчас, прогноз погоды и архив. Всё, что Вы хотите узнать о погоде Уля!

Поиск расширенной информации на нашем сайте:

Другие новости

Новости СМИ2

Главная страница сайта

Новости сайта

03.07.2017

Напоминаем, что на нашем специализированном сайте Метеоцентр.Азия вы можете получить высокодетализированные автоматические прогнозы погоды по пунктам России, СНГ и мира в авиационном формате (включающие направление и скорость ветра, видимость, явления погоды, количество и форму облачности, нижнюю и верхнюю границу облачности).


Погода Уля - сегодня

Время (UTC), дата Ветер
(°,м/с) 
Видим.   Явления Облачность Т
(°С)
Тd
(°С)
f(%) Тe
(°С)
Pmin
(гПа)
dP
(гПа)
Po
(мм)
O2
(г/м3)
Тmin Tmax R s Состояние
почвы
09 20.08.17 020 (С) 4000 м  дождь  10/10 300 м 
[Frnb|Ns]
+13.8 +13.8 100 +20  1002.2  -0.2  751  285    +14.8  26     
12 20.08.17 050 (СВ) 4000 м  дождь  10/10 300 м 
[Frnb|Ns]
+13.3 +13.3 100 +19  1002.9  0.7  752  286           
15 20.08.17 360 (С) 4000 м  дождь  10/10 300 м 
[Frnb|Ns]
+13 +13 100 +18  1002.2  -0.7  751  286           
18 20.08.17 340 (С) 10 км  в посл. час дождь  10/10 300 м 
[Frnb|Ns]
+12.4 +12.2 99 +16  1002.1  -0.1  751  287           
21 20.08.17 340 (С) 20000 м    8/8 600 м 
[Sc]
+14.2 +10.4 78 +16  1003.2  1.1  752  286  +12.1      влажная 
00 21.08.17 360 (С) 20000 м    10/10 600 м 
[Sc]
+17.1 +11.4 69 +21  1004  0.8  753  283           
03 21.08.17 020 (С) 20000 м    10/10 600 м 
[Sc]
+16.7 +11.4 71 +20  1005.4  1.4  754  284           
06 21.08.17 020 (С) 20000 м    10/10 600 м 
[Sc]
+17.6 +11 65 +20  1006.9  1.5  755  284           
09 21.08.17 360 (С) 20000 м    8/8 600 м 
[Sc]
+16.8 +10.9 68 +19  1008.9  756  285    +18.4       
12 21.08.17 360 (С) 20000 м    8/4 600 м средняя 
[Sc|Ac trans]
+14.8 +10 73 +16  1010  1.1  757  288           
15 21.08.17 360 (С) 20000 м    8/4 600 м средняя 
[Sc|Ac trans]
+13.4 +8.4 72 +15  1010.9  0.9  758  290           
18 21.08.17 тихо ()   20000 м    10/10 600 м 
[Sc]
+12.2 +9.4 83 +12  1011.8  0.9  758  291           
21 21.08.17 360 (С) 20000 м    10/5 600 м средняя 
[Sc|Ac trans]
+12.5 +9.1 80 +13  1012.7  0.9  759  291  +12        сухая 
00 22.08.17 070 (В) 20000 м  слаб. дождь  10/10 600 м 
[Sc]
+14.2 +12.6 90 +18  1013.8  1.1  760  289           
03 22.08.17 070 (В) 20000 м  {дождь, морось}  10/10 600 м 
[St]
+14.9 +11.6 81 +17  1013.4  -0.4  760  288           
06 22.08.17 070 (В) 10-12{12}  20000 м  {дождь, морось}  10/10 600 м 
[Sc]
+14.4 +12.2 87 +17  1012.9  -0.5  759  288           
09 22.08.17 090 (В) 7{12}  10 км  слаб. морось  10/10 300 м 
[St]
+14 +13.3 96 +19  1013.5  0.6  760  289    +15.5  0.3     
12 22.08.17 090 (В) 10 км  ливневой дождь, в посл. час гроза{морось}  10/10 300 м 
[St]
+13.4 +12.7 96 +18  1013.8  0.3  760  289           
15 22.08.17 070 (В) 10 км  слаб. морось  10/10 300 м 
[St]
+12.1 +11.5 96 +15  1013.2  -0.6  759  291           
18 22.08.17 тихо ()   10 км  слаб. морось  10/10 300 м 
[St]
+11.8 +11.2 96 +14  1012.9  -0.3  759  291           
21 22.08.17 070 (В) 10 км  {морось}  10/10 300 м 
[St]
+13.3 +12.6 96 +18  1012.8  -0.1  759  289  +11.5    0.6    влажная 
00 23.08.17 070 (В) 20000 м  {морось}  9/9 600 м 
[St]
+13.9 +11.9 88 +17  1013.3  0.5  760  289           
03 23.08.17 090 (В) 20000 м    10/6 600 м средняя 
[St|Ac As]
+14.5 +11.7 83 +18  1012.8  -0.5  759  288           
06 23.08.17 090 (В) 20000 м    10/5 600 м средняя 
[Sc|Ac As]
+14.9 +11.6 81 +19  1012.2  -0.6  759  288           
09 23.08.17 110 (В) 10 км    9/5 600 м средняя 
[Sc|Ac As]
+14 +12 88 +19  1012.3  0.1  759  289    +15.4       
Время (UTC), дата Ветер
(°,м/с) 
Видим.   Явления Облачность Т
(°С)
Тd
(°С)
f(%) Тe
(°С)
Pmin
(гПа)
dP
(гПа)
Po
(мм)
O2
(г/м3)
Тmin Tmax R s Состояние
почвы

Для получения пояснительной информации подведите курсор к названию столбца.

ПОГОДА Уля - архив

Всё, что Вы хотите узнать о погоде Уля - удобно и подробно!

Выберите нужную дату (начиная с 1 января 2015* года) и нажмите кнопку "Найти".
Будут отображены архивные сводки погоды по пункту Уля, начиная с указанной даты.


Отображать данные в формате CSV (для использования в таблицах Excel)


Внимание! Наш архив погоды предназначен исключительно для личного некоммерческого использования в познавательных целях. Если Вам необходимы официальные справки о состоянии погоды (для производственных, юридических, коммерческих и т.п. целей), обращайтесь в органы Росгидромета.

*Примечание: данная дата относится к архиву по метеостанциям СССР (Россия, СНГ, Балтия).
Архив по метеостанциям Зарубежной Европы и Азии (кроме Китая) хранится 10 дней, по другим регионам земного шара (Китай, Африка, Америка, Австралия, Океания) - 1 день.

Уля - район местоположения метеостанции


Название, широта, долгота, высота метеостанции:
Уля 58.8°ш. 141.7°д. 4 м над ур. моря [Российская Федерация]

Дополнительная информация

В oтличие oт бoльшинства пoгoдных сайтoв мы публикуем пoдрoбную метеoинфoрмацию в детальнoм прoфессиoнальнoм фoрмате.

Характеристики температуры и влажнoсти вoздуха измеряются на высoте 2 м в тени вдали oт зданий и деревьев.
Скoрoсть ветра измеряется на высoте 10 м (на урoвне рoста челoвека скoрoсть ветра ниже в 1.5-2 раза). Если метеoстанция нахoдится в гoрoде или в лесу, тo скoрoсть ветра занижена на 2-4 м/с пo сравнению с oткрытым местoм. Скoрoсть ветра над акватoриями крупных рек и oзёр, а также на вершинах хoлмoв на 2-5 м/с выше, чем в oбычных услoвиях.
Атмoсфернoе давление в разных тoчках местнoсти мoжет значительнo oтличаться oт давления на метеoстанции, в зависимoсти oт услoвий рельефа (при пoдъёме на 10 м давление пoнижается примернo на 1 мм рт.ст.).